Flag for U.S.A. Weather past 2 weeks in Augusta, Georgia, U.S.A.

Now
44 °F

Clear.


Feels Like: 42 °F
Forecast: 37 / 63 °F
Wind: 5 mph from South

Location: Daniel Field

Current Time: Feb 1, 2015 at 3:59:49 AM

Latest Report: Feb 1, 2015 at 2:53 AM


Visibility: 10 mi

Pressure: 30.29 "Hg

Humidity: 41%

Dew point: 22 °F

Location of AugustaLocation

Historic Weather in Augusta — Graph

°F

Augusta temperature yesterday

Maximum temperature yesterday: 56 °F (at 3:53 PM)
Minimum temperature yesterday: 33 °F (at 6:53 AM)
Average temperature yesterday: 45 °F

Past Weeks' High & Low Weather Summary

 TemperatureHumidityPressure
High70 °F (Jan 21, 2:53 PM)100% (Jan 23, 1:53 PM)30.41 "Hg (Jan 23, 1:53 PM)
Low32 °F (Jan 28, 5:53 AM)16% (Jan 31, 3:53 PM)29.65 "Hg (Jan 24, 3:53 AM)
Average50 °F52%30.06 "Hg
* Reported Jan 17 2:53 AM — Feb 1 2:53 AM, Augusta, Weather by CustomWeather, © 2014

Note: Actual official high and low records may vary slightly from our data, if they occured in-between our weather recording intervals... More about our weather records

Advertising

Augusta weather history for previous 24 hours

 ConditionsComfort  
Time TempWeatherWind HumidityBarometerVisibility
2:53 AM
Feb 1
44 °FClear.5 mph41%30.29 "Hg10 mi
1:53 AM45 °FClear.6 mph37%30.30 "Hg10 mi
12:53 AM46 °FClear.5 mph37%30.29 "Hg10 mi
11:53 PM
Jan 31
47 °FClear.6 mph37%30.30 "Hg10 mi
10:53 PM49 °FClear.6 mph31%30.31 "Hg10 mi
9:53 PM49 °FClear.5 mph32%30.32 "Hg10 mi
8:53 PM51 °FClear.3 mph24%30.33 "Hg10 mi
7:53 PM51 °FClear.3 mph26%30.33 "Hg10 mi
6:53 PM52 °FClear.3 mph25%30.33 "Hg10 mi
5:53 PM54 °FSunny.3 mph21%30.32 "Hg10 mi
4:53 PM55 °FSunny.5 mph18%30.31 "Hg10 mi
3:53 PM56 °FSunny.No wind16%30.31 "Hg10 mi
2:53 PM55 °FSunny.3 mph18%30.32 "Hg10 mi
1:53 PM54 °FSunny.5 mph19%30.34 "Hg10 mi
12:53 PM51 °FSunny.6 mph21%30.37 "Hg10 mi
11:53 AM48 °FSunny.6 mph27%30.40 "Hg10 mi
10:53 AM45 °FSunny.5 mph28%30.41 "Hg10 mi
9:53 AM42 °FSunny.3 mph29%30.41 "Hg10 mi
8:53 AM38 °FSunny.3 mph46%30.38 "Hg10 mi
7:53 AM33 °FSunny.3 mph58%30.36 "Hg10 mi
6:53 AM33 °FClear.5 mph54%30.36 "Hg10 mi
5:53 AM34 °FClear.3 mph50%30.34 "Hg10 mi
4:53 AM34 °FClear.5 mph50%30.35 "Hg10 mi
3:53 AM36 °FClear.6 mph44%30.34 "Hg10 mi
Weather by CustomWeather, © 2014

See weather overviewHow to use our weather pages